owner,sensor,date,latitude,longitude,air_temperature,qcFlag 
COMPS,ioos:station:USF.COMPS:NFB:1,2016-01-01T04:00:00Z,25.0840,-81.0960,26.82,1111122 
COMPS,ioos:station:USF.COMPS:NFB:1,2016-01-01T04:06:00Z,25.0840,-81.0960,26.82,1111122 
COMPS,ioos:station:USF.COMPS:NFB:1,2016-01-01T04:12:00Z,25.0840,-81.0960,26.82,1111122 
COMPS,ioos:station:USF.COMPS:NFB:1,2016-01-01T04:18:00Z,25.0840,-81.0960,26.83,1111122 
COMPS,ioos:station:USF.COMPS:NFB:1,2016-01-01T04:24:00Z,25.0840,-81.0960,26.82,1111122 
COMPS,ioos:station:USF.COMPS:NFB:1,2016-01-01T04:30:00Z,25.0840,-81.0960,26.8,1111122 
COMPS,ioos:station:USF.COMPS:NFB:1,2016-01-01T04:36:00Z,25.0840,-81.0960,26.82,1111122 
COMPS,ioos:station:USF.COMPS:NFB:1,2016-01-01T04:42:00Z,25.0840,-81.0960,26.81,1111122 
COMPS,ioos:station:USF.COMPS:NFB:1,2016-01-01T04:48:00Z,25.0840,-81.0960,26.82,1111122 
COMPS,ioos:station:USF.COMPS:NFB:1,2016-01-01T04:54:00Z,25.0840,-81.0960,26.79,1111122 
COMPS,ioos:station:USF.COMPS:NFB:1,2016-01-01T05:00:00Z,25.0840,-81.0960,26.79,1111122 
COMPS,ioos:station:USF.COMPS:NFB:1,2016-01-01T05:06:00Z,25.0840,-81.0960,26.74,1111122 
COMPS,ioos:station:USF.COMPS:NFB:1,2016-01-01T05:12:00Z,25.0840,-81.0960,26.75,1111122 
COMPS,ioos:station:USF.COMPS:NFB:1,2016-01-01T05:18:00Z,25.0840,-81.0960,26.71,1111122 
COMPS,ioos:station:USF.COMPS:NFB:1,2016-01-01T05:24:00Z,25.0840,-81.0960,26.69,1111122 
COMPS,ioos:station:USF.COMPS:NFB:1,2016-01-01T05:30:00Z,25.0840,-81.0960,26.66,1111122 
COMPS,ioos:station:USF.COMPS:NFB:1,2016-01-01T05:36:00Z,25.0840,-81.0960,26.69,1111122 
COMPS,ioos:station:USF.COMPS:NFB:1,2016-01-01T05:42:00Z,25.0840,-81.0960,26.7,1111122 
COMPS,ioos:station:USF.COMPS:NFB:1,2016-01-01T05:48:00Z,25.0840,-81.0960,26.69,1111122 
COMPS,ioos:station:USF.COMPS:NFB:1,2016-01-01T05:54:00Z,25.0840,-81.0960,26.69,1111122 
COMPS,ioos:station:USF.COMPS:NFB:1,2016-01-01T06:00:00Z,25.0840,-81.0960,26.69,1111122 
COMPS,ioos:station:USF.COMPS:NFB:1,2016-01-01T06:06:00Z,25.0840,-81.0960,26.69,1111122 
COMPS,ioos:station:USF.COMPS:NFB:1,2016-01-01T06:12:00Z,25.0840,-81.0960,26.68,1111122 
COMPS,ioos:station:USF.COMPS:NFB:1,2016-01-01T06:18:00Z,25.0840,-81.0960,26.67,1111122 
COMPS,ioos:station:USF.COMPS:NFB:1,2016-01-01T06:24:00Z,25.0840,-81.0960,26.64,1111122 
COMPS,ioos:station:USF.COMPS:NFB:1,2016-01-01T06:30:00Z,25.0840,-81.0960,26.6,1111122 
COMPS,ioos:station:USF.COMPS:NFB:1,2016-01-01T06:36:00Z,25.0840,-81.0960,26.68,1111122 
COMPS,ioos:station:USF.COMPS:NFB:1,2016-01-01T06:42:00Z,25.0840,-81.0960,26.66,1111122 
COMPS,ioos:station:USF.COMPS:NFB:1,2016-01-01T06:48:00Z,25.0840,-81.0960,26.66,1111122 
COMPS,ioos:station:USF.COMPS:NFB:1,2016-01-01T06:54:00Z,25.0840,-81.0960,26.6,1111122 
COMPS,ioos:station:USF.COMPS:NFB:1,2016-01-01T07:00:00Z,25.0840,-81.0960,26.57,1111122 
COMPS,ioos:station:USF.COMPS:NFB:1,2016-01-01T07:06:00Z,25.0840,-81.0960,26.64,1111122 
COMPS,ioos:station:USF.COMPS:NFB:1,2016-01-01T07:12:00Z,25.0840,-81.0960,26.67,1111122 
COMPS,ioos:station:USF.COMPS:NFB:1,2016-01-01T07:18:00Z,25.0840,-81.0960,26.66,1111122 
COMPS,ioos:station:USF.COMPS:NFB:1,2016-01-01T07:24:00Z,25.0840,-81.0960,26.61,1111122 
COMPS,ioos:station:USF.COMPS:NFB:1,2016-01-01T07:30:00Z,25.0840,-81.0960,26.6,1111122 
COMPS,ioos:station:USF.COMPS:NFB:1,2016-01-01T07:36:00Z,25.0840,-81.0960,26.65,1111122 
COMPS,ioos:station:USF.COMPS:NFB:1,2016-01-01T07:42:00Z,25.0840,-81.0960,26.66,1111122 
COMPS,ioos:station:USF.COMPS:NFB:1,2016-01-01T07:48:00Z,25.0840,-81.0960,26.69,1111122 
COMPS,ioos:station:USF.COMPS:NFB:1,2016-01-01T07:54:00Z,25.0840,-81.0960,26.65,1111122 
COMPS,ioos:station:USF.COMPS:NFB:1,2016-01-01T08:00:00Z,25.0840,-81.0960,26.63,1111122 
COMPS,ioos:station:USF.COMPS:NFB:1,2016-01-01T08:06:00Z,25.0840,-81.0960,26.56,1111122 
COMPS,ioos:station:USF.COMPS:NFB:1,2016-01-01T08:12:00Z,25.0840,-81.0960,26.62,1111122 
COMPS,ioos:station:USF.COMPS:NFB:1,2016-01-01T08:18:00Z,25.0840,-81.0960,26.57,1111122 
COMPS,ioos:station:USF.COMPS:NFB:1,2016-01-01T08:24:00Z,25.0840,-81.0960,26.55,1111122 
COMPS,ioos:station:USF.COMPS:NFB:1,2016-01-01T08:30:00Z,25.0840,-81.0960,26.52,1111122 
COMPS,ioos:station:USF.COMPS:NFB:1,2016-01-01T08:36:00Z,25.0840,-81.0960,26.55,1111122 
COMPS,ioos:station:USF.COMPS:NFB:1,2016-01-01T08:42:00Z,25.0840,-81.0960,26.53,1111122 
COMPS,ioos:station:USF.COMPS:NFB:1,2016-01-01T08:48:00Z,25.0840,-81.0960,26.55,1111122 
COMPS,ioos:station:USF.COMPS:NFB:1,2016-01-01T08:54:00Z,25.0840,-81.0960,26.53,1111122 
COMPS,ioos:station:USF.COMPS:NFB:1,2016-01-01T09:00:00Z,25.0840,-81.0960,26.48,1111122 
COMPS,ioos:station:USF.COMPS:NFB:1,2016-01-01T09:06:00Z,25.0840,-81.0960,26.45,1111122 
COMPS,ioos:station:USF.COMPS:NFB:1,2016-01-01T09:12:00Z,25.0840,-81.0960,26.46,1111122 
COMPS,ioos:station:USF.COMPS:NFB:1,2016-01-01T09:18:00Z,25.0840,-81.0960,26.45,1111122 
COMPS,ioos:station:USF.COMPS:NFB:1,2016-01-01T09:24:00Z,25.0840,-81.0960,26.42,1111122 
COMPS,ioos:station:USF.COMPS:NFB:1,2016-01-01T09:30:00Z,25.0840,-81.0960,26.38,1111122 
COMPS,ioos:station:USF.COMPS:NFB:1,2016-01-01T09:36:00Z,25.0840,-81.0960,26.42,1111122 
COMPS,ioos:station:USF.COMPS:NFB:1,2016-01-01T09:42:00Z,25.0840,-81.0960,26.42,1111122 
COMPS,ioos:station:USF.COMPS:NFB:1,2016-01-01T09:48:00Z,25.0840,-81.0960,26.43,1111122 
COMPS,ioos:station:USF.COMPS:NFB:1,2016-01-01T09:54:00Z,25.0840,-81.0960,26.44,1111122 
COMPS,ioos:station:USF.COMPS:NFB:1,2016-01-01T10:00:00Z,25.0840,-81.0960,26.42,1111122 
COMPS,ioos:station:USF.COMPS:NFB:1,2016-01-01T10:06:00Z,25.0840,-81.0960,26.42,1111122 
COMPS,ioos:station:USF.COMPS:NFB:1,2016-01-01T10:12:00Z,25.0840,-81.0960,26.42,1111122 
COMPS,ioos:station:USF.COMPS:NFB:1,2016-01-01T10:18:00Z,25.0840,-81.0960,26.4,1111122 
COMPS,ioos:station:USF.COMPS:NFB:1,2016-01-01T10:24:00Z,25.0840,-81.0960,26.42,1111122 
COMPS,ioos:station:USF.COMPS:NFB:1,2016-01-01T10:30:00Z,25.0840,-81.0960,26.4,1111122 
COMPS,ioos:station:USF.COMPS:NFB:1,2016-01-01T10:36:00Z,25.0840,-81.0960,26.42,1111122 
COMPS,ioos:station:USF.COMPS:NFB:1,2016-01-01T10:42:00Z,25.0840,-81.0960,26.42,1111122 
COMPS,ioos:station:USF.COMPS:NFB:1,2016-01-01T10:48:00Z,25.0840,-81.0960,26.42,1111122 
COMPS,ioos:station:USF.COMPS:NFB:1,2016-01-01T10:54:00Z,25.0840,-81.0960,26.42,1111122 
COMPS,ioos:station:USF.COMPS:NFB:1,2016-01-01T11:00:00Z,25.0840,-81.0960,26.43,1111122 
COMPS,ioos:station:USF.COMPS:NFB:1,2016-01-01T11:06:00Z,25.0840,-81.0960,26.42,1111122 
COMPS,ioos:station:USF.COMPS:NFB:1,2016-01-01T11:12:00Z,25.0840,-81.0960,26.42,1111122 
COMPS,ioos:station:USF.COMPS:NFB:1,2016-01-01T11:18:00Z,25.0840,-81.0960,26.45,1111122 
COMPS,ioos:station:USF.COMPS:NFB:1,2016-01-01T11:24:00Z,25.0840,-81.0960,26.49,1111122 
COMPS,ioos:station:USF.COMPS:NFB:1,2016-01-01T11:30:00Z,25.0840,-81.0960,26.5,1111122 
COMPS,ioos:station:USF.COMPS:NFB:1,2016-01-01T11:36:00Z,25.0840,-81.0960,26.53,1111122 
COMPS,ioos:station:USF.COMPS:NFB:1,2016-01-01T11:42:00Z,25.0840,-81.0960,26.57,1111122 
COMPS,ioos:station:USF.COMPS:NFB:1,2016-01-01T11:48:00Z,25.0840,-81.0960,26.55,1111122 
COMPS,ioos:station:USF.COMPS:NFB:1,2016-01-01T11:54:00Z,25.0840,-81.0960,26.55,1111122 
COMPS,ioos:station:USF.COMPS:NFB:1,2016-01-01T12:00:00Z,25.0840,-81.0960,26.51,1111122 
COMPS,ioos:station:USF.COMPS:NFB:1,2016-01-01T12:06:00Z,25.0840,-81.0960,26.49,1111122 
COMPS,ioos:station:USF.COMPS:NFB:1,2016-01-01T12:12:00Z,25.0840,-81.0960,26.48,1111122 
COMPS,ioos:station:USF.COMPS:NFB:1,2016-01-01T12:18:00Z,25.0840,-81.0960,26.48,1111122 
COMPS,ioos:station:USF.COMPS:NFB:1,2016-01-01T12:24:00Z,25.0840,-81.0960,26.45,1111122 
COMPS,ioos:station:USF.COMPS:NFB:1,2016-01-01T12:30:00Z,25.0840,-81.0960,26.42,1111122 
COMPS,ioos:station:USF.COMPS:NFB:1,2016-01-01T12:36:00Z,25.0840,-81.0960,26.5,1111122 
COMPS,ioos:station:USF.COMPS:NFB:1,2016-01-01T12:42:00Z,25.0840,-81.0960,26.51,1111122 
COMPS,ioos:station:USF.COMPS:NFB:1,2016-01-01T12:48:00Z,25.0840,-81.0960,26.56,1111122 
COMPS,ioos:station:USF.COMPS:NFB:1,2016-01-01T12:54:00Z,25.0840,-81.0960,26.56,1111122 
COMPS,ioos:station:USF.COMPS:NFB:1,2016-01-01T13:00:00Z,25.0840,-81.0960,26.58,1111122 
COMPS,ioos:station:USF.COMPS:NFB:1,2016-01-01T13:06:00Z,25.0840,-81.0960,26.62,1111122 
COMPS,ioos:station:USF.COMPS:NFB:1,2016-01-01T13:12:00Z,25.0840,-81.0960,26.61,1111122 
COMPS,ioos:station:USF.COMPS:NFB:1,2016-01-01T13:18:00Z,25.0840,-81.0960,26.69,1111122 
COMPS,ioos:station:USF.COMPS:NFB:1,2016-01-01T13:24:00Z,25.0840,-81.0960,26.69,1111122 
COMPS,ioos:station:USF.COMPS:NFB:1,2016-01-01T13:30:00Z,25.0840,-81.0960,26.64,1111122 
COMPS,ioos:station:USF.COMPS:NFB:1,2016-01-01T13:36:00Z,25.0840,-81.0960,26.66,1111122 
COMPS,ioos:station:USF.COMPS:NFB:1,2016-01-01T13:42:00Z,25.0840,-81.0960,26.7,1111122 
COMPS,ioos:station:USF.COMPS:NFB:1,2016-01-01T13:48:00Z,25.0840,-81.0960,26.7,1111122 
COMPS,ioos:station:USF.COMPS:NFB:1,2016-01-01T13:54:00Z,25.0840,-81.0960,26.77,1111122 
COMPS,ioos:station:USF.COMPS:NFB:1,2016-01-01T14:00:00Z,25.0840,-81.0960,26.79,1111122 
COMPS,ioos:station:USF.COMPS:NFB:1,2016-01-01T14:06:00Z,25.0840,-81.0960,26.76,1111122 
COMPS,ioos:station:USF.COMPS:NFB:1,2016-01-01T14:12:00Z,25.0840,-81.0960,26.83,1111122 
COMPS,ioos:station:USF.COMPS:NFB:1,2016-01-01T14:18:00Z,25.0840,-81.0960,26.84,1111122 
COMPS,ioos:station:USF.COMPS:NFB:1,2016-01-01T14:24:00Z,25.0840,-81.0960,26.82,1111122 
COMPS,ioos:station:USF.COMPS:NFB:1,2016-01-01T14:30:00Z,25.0840,-81.0960,26.82,1111122 
COMPS,ioos:station:USF.COMPS:NFB:1,2016-01-01T14:36:00Z,25.0840,-81.0960,26.85,1111122 
COMPS,ioos:station:USF.COMPS:NFB:1,2016-01-01T14:42:00Z,25.0840,-81.0960,26.83,1111122 
COMPS,ioos:station:USF.COMPS:NFB:1,2016-01-01T14:48:00Z,25.0840,-81.0960,26.82,1111122 
COMPS,ioos:station:USF.COMPS:NFB:1,2016-01-01T14:54:00Z,25.0840,-81.0960,26.83,1111122 
COMPS,ioos:station:USF.COMPS:NFB:1,2016-01-01T15:00:00Z,25.0840,-81.0960,26.83,1111122 
COMPS,ioos:station:USF.COMPS:NFB:1,2016-01-01T15:06:00Z,25.0840,-81.0960,26.85,1111122 
COMPS,ioos:station:USF.COMPS:NFB:1,2016-01-01T15:12:00Z,25.0840,-81.0960,26.88,1111122 
COMPS,ioos:station:USF.COMPS:NFB:1,2016-01-01T15:18:00Z,25.0840,-81.0960,26.86,1111122 
COMPS,ioos:station:USF.COMPS:NFB:1,2016-01-01T15:24:00Z,25.0840,-81.0960,26.85,1111122 
COMPS,ioos:station:USF.COMPS:NFB:1,2016-01-01T15:30:00Z,25.0840,-81.0960,26.92,1111122 
COMPS,ioos:station:USF.COMPS:NFB:1,2016-01-01T15:36:00Z,25.0840,-81.0960,26.95,1111122 
COMPS,ioos:station:USF.COMPS:NFB:1,2016-01-01T15:42:00Z,25.0840,-81.0960,26.93,1111122 
COMPS,ioos:station:USF.COMPS:NFB:1,2016-01-01T15:48:00Z,25.0840,-81.0960,26.95,1111122 
COMPS,ioos:station:USF.COMPS:NFB:1,2016-01-01T15:54:00Z,25.0840,-81.0960,26.98,1111122 
COMPS,ioos:station:USF.COMPS:NFB:1,2016-01-01T16:00:00Z,25.0840,-81.0960,26.96,1111122 
COMPS,ioos:station:USF.COMPS:NFB:1,2016-01-01T16:06:00Z,25.0840,-81.0960,26.96,1111122 
COMPS,ioos:station:USF.COMPS:NFB:1,2016-01-01T16:12:00Z,25.0840,-81.0960,26.98,1111122 
COMPS,ioos:station:USF.COMPS:NFB:1,2016-01-01T16:18:00Z,25.0840,-81.0960,26.97,1111122 
COMPS,ioos:station:USF.COMPS:NFB:1,2016-01-01T16:24:00Z,25.0840,-81.0960,27.05,1111122 
COMPS,ioos:station:USF.COMPS:NFB:1,2016-01-01T16:30:00Z,25.0840,-81.0960,26.92,1111122 
COMPS,ioos:station:USF.COMPS:NFB:1,2016-01-01T16:36:00Z,25.0840,-81.0960,27.0,1111122 
COMPS,ioos:station:USF.COMPS:NFB:1,2016-01-01T16:42:00Z,25.0840,-81.0960,27.05,1111122 
COMPS,ioos:station:USF.COMPS:NFB:1,2016-01-01T16:48:00Z,25.0840,-81.0960,27.0,1111122 
COMPS,ioos:station:USF.COMPS:NFB:1,2016-01-01T16:54:00Z,25.0840,-81.0960,27.1,1111122 
COMPS,ioos:station:USF.COMPS:NFB:1,2016-01-01T17:00:00Z,25.0840,-81.0960,27.1,1111122 
COMPS,ioos:station:USF.COMPS:NFB:1,2016-01-01T17:06:00Z,25.0840,-81.0960,27.18,1111122 
COMPS,ioos:station:USF.COMPS:NFB:1,2016-01-01T17:12:00Z,25.0840,-81.0960,27.13,1111122 
COMPS,ioos:station:USF.COMPS:NFB:1,2016-01-01T17:18:00Z,25.0840,-81.0960,27.11,1111122 
COMPS,ioos:station:USF.COMPS:NFB:1,2016-01-01T17:24:00Z,25.0840,-81.0960,27.17,1111122 
COMPS,ioos:station:USF.COMPS:NFB:1,2016-01-01T17:30:00Z,25.0840,-81.0960,27.14,1111122 
COMPS,ioos:station:USF.COMPS:NFB:1,2016-01-01T17:36:00Z,25.0840,-81.0960,27.17,1111122 
COMPS,ioos:station:USF.COMPS:NFB:1,2016-01-01T17:42:00Z,25.0840,-81.0960,27.2,1111122 
COMPS,ioos:station:USF.COMPS:NFB:1,2016-01-01T17:48:00Z,25.0840,-81.0960,27.11,1111122 
COMPS,ioos:station:USF.COMPS:NFB:1,2016-01-01T17:54:00Z,25.0840,-81.0960,27.12,1111122 
COMPS,ioos:station:USF.COMPS:NFB:1,2016-01-02T04:00:00Z,25.0840,-81.0960,26.5,1111122 
COMPS,ioos:station:USF.COMPS:NFB:1,2016-01-02T04:06:00Z,25.0840,-81.0960,26.47,1111122 
COMPS,ioos:station:USF.COMPS:NFB:1,2016-01-02T04:12:00Z,25.0840,-81.0960,26.49,1111122 
COMPS,ioos:station:USF.COMPS:NFB:1,2016-01-02T04:18:00Z,25.0840,-81.0960,26.42,1111122 
COMPS,ioos:station:USF.COMPS:NFB:1,2016-01-02T04:24:00Z,25.0840,-81.0960,26.43,1111122 
COMPS,ioos:station:USF.COMPS:NFB:1,2016-01-02T04:30:00Z,25.0840,-81.0960,26.43,1111122 
COMPS,ioos:station:USF.COMPS:NFB:1,2016-01-02T04:36:00Z,25.0840,-81.0960,26.38,1111122 
COMPS,ioos:station:USF.COMPS:NFB:1,2016-01-02T04:42:00Z,25.0840,-81.0960,26.19,1111122 
COMPS,ioos:station:USF.COMPS:NFB:1,2016-01-02T04:48:00Z,25.0840,-81.0960,26.15,1111122 
COMPS,ioos:station:USF.COMPS:NFB:1,2016-01-02T04:54:00Z,25.0840,-81.0960,26.15,1111122 
COMPS,ioos:station:USF.COMPS:NFB:1,2016-01-02T05:00:00Z,25.0840,-81.0960,26.05,1111122 
COMPS,ioos:station:USF.COMPS:NFB:1,2016-01-02T05:06:00Z,25.0840,-81.0960,25.98,1111122 
COMPS,ioos:station:USF.COMPS:NFB:1,2016-01-02T05:12:00Z,25.0840,-81.0960,25.88,1111122 
COMPS,ioos:station:USF.COMPS:NFB:1,2016-01-02T05:18:00Z,25.0840,-81.0960,25.88,1111122 
COMPS,ioos:station:USF.COMPS:NFB:1,2016-01-02T05:24:00Z,25.0840,-81.0960,25.84,1111122 
COMPS,ioos:station:USF.COMPS:NFB:1,2016-01-02T05:30:00Z,25.0840,-81.0960,25.83,1111122 
COMPS,ioos:station:USF.COMPS:NFB:1,2016-01-02T05:36:00Z,25.0840,-81.0960,25.88,1111122 
COMPS,ioos:station:USF.COMPS:NFB:1,2016-01-02T05:42:00Z,25.0840,-81.0960,25.88,1111122 
COMPS,ioos:station:USF.COMPS:NFB:1,2016-01-02T05:48:00Z,25.0840,-81.0960,25.8,1111122 
COMPS,ioos:station:USF.COMPS:NFB:1,2016-01-02T05:54:00Z,25.0840,-81.0960,25.76,1111122 
COMPS,ioos:station:USF.COMPS:NFB:1,2016-01-02T06:00:00Z,25.0840,-81.0960,25.85,1111122 
COMPS,ioos:station:USF.COMPS:NFB:1,2016-01-02T06:06:00Z,25.0840,-81.0960,25.69,1111122 
COMPS,ioos:station:USF.COMPS:NFB:1,2016-01-02T06:12:00Z,25.0840,-81.0960,25.6,1111122 
COMPS,ioos:station:USF.COMPS:NFB:1,2016-01-02T06:18:00Z,25.0840,-81.0960,25.57,1111122 
COMPS,ioos:station:USF.COMPS:NFB:1,2016-01-02T06:24:00Z,25.0840,-81.0960,25.56,1111122 
COMPS,ioos:station:USF.COMPS:NFB:1,2016-01-02T06:30:00Z,25.0840,-81.0960,25.55,1111122 
COMPS,ioos:station:USF.COMPS:NFB:1,2016-01-02T06:36:00Z,25.0840,-81.0960,25.55,1111122 
COMPS,ioos:station:USF.COMPS:NFB:1,2016-01-02T06:42:00Z,25.0840,-81.0960,25.48,1111122 
COMPS,ioos:station:USF.COMPS:NFB:1,2016-01-02T06:48:00Z,25.0840,-81.0960,25.45,1111122 
COMPS,ioos:station:USF.COMPS:NFB:1,2016-01-02T06:54:00Z,25.0840,-81.0960,25.48,1111122 
COMPS,ioos:station:USF.COMPS:NFB:1,2016-01-02T07:00:00Z,25.0840,-81.0960,25.47,1111122 
COMPS,ioos:station:USF.COMPS:NFB:1,2016-01-02T07:06:00Z,25.0840,-81.0960,25.47,1111122 
COMPS,ioos:station:USF.COMPS:NFB:1,2016-01-02T07:12:00Z,25.0840,-81.0960,25.45,1111122 
COMPS,ioos:station:USF.COMPS:NFB:1,2016-01-02T07:18:00Z,25.0840,-81.0960,25.44,1111122 
COMPS,ioos:station:USF.COMPS:NFB:1,2016-01-02T07:24:00Z,25.0840,-81.0960,25.36,1111122 
COMPS,ioos:station:USF.COMPS:NFB:1,2016-01-02T07:30:00Z,25.0840,-81.0960,25.36,1111122 
COMPS,ioos:station:USF.COMPS:NFB:1,2016-01-02T07:36:00Z,25.0840,-81.0960,25.35,1111122 
COMPS,ioos:station:USF.COMPS:NFB:1,2016-01-02T07:42:00Z,25.0840,-81.0960,25.32,1111122 
COMPS,ioos:station:USF.COMPS:NFB:1,2016-01-02T07:48:00Z,25.0840,-81.0960,25.33,1111122 
COMPS,ioos:station:USF.COMPS:NFB:1,2016-01-02T07:54:00Z,25.0840,-81.0960,25.26,1111122 
COMPS,ioos:station:USF.COMPS:NFB:1,2016-01-02T08:00:00Z,25.0840,-81.0960,25.32,1111122 
COMPS,ioos:station:USF.COMPS:NFB:1,2016-01-02T08:06:00Z,25.0840,-81.0960,25.41,1111122 
COMPS,ioos:station:USF.COMPS:NFB:1,2016-01-02T08:12:00Z,25.0840,-81.0960,25.35,1111122 
COMPS,ioos:station:USF.COMPS:NFB:1,2016-01-02T08:18:00Z,25.0840,-81.0960,25.38,1111122 
COMPS,ioos:station:USF.COMPS:NFB:1,2016-01-02T08:24:00Z,25.0840,-81.0960,25.38,1111122 
COMPS,ioos:station:USF.COMPS:NFB:1,2016-01-02T08:30:00Z,25.0840,-81.0960,25.32,1111122 
COMPS,ioos:station:USF.COMPS:NFB:1,2016-01-02T08:36:00Z,25.0840,-81.0960,25.27,1111122 
COMPS,ioos:station:USF.COMPS:NFB:1,2016-01-02T08:42:00Z,25.0840,-81.0960,25.21,1111122 
COMPS,ioos:station:USF.COMPS:NFB:1,2016-01-02T08:48:00Z,25.0840,-81.0960,25.2,1111122 
COMPS,ioos:station:USF.COMPS:NFB:1,2016-01-02T08:54:00Z,25.0840,-81.0960,25.06,1111122 
COMPS,ioos:station:USF.COMPS:NFB:1,2016-01-02T09:00:00Z,25.0840,-81.0960,24.94,1111122 
COMPS,ioos:station:USF.COMPS:NFB:1,2016-01-02T09:06:00Z,25.0840,-81.0960,24.92,1111122 
COMPS,ioos:station:USF.COMPS:NFB:1,2016-01-02T09:12:00Z,25.0840,-81.0960,25.0,1111122 
COMPS,ioos:station:USF.COMPS:NFB:1,2016-01-02T09:18:00Z,25.0840,-81.0960,25.05,1111122 
COMPS,ioos:station:USF.COMPS:NFB:1,2016-01-02T09:24:00Z,25.0840,-81.0960,25.05,1111122 
COMPS,ioos:station:USF.COMPS:NFB:1,2016-01-02T09:30:00Z,25.0840,-81.0960,25.05,1111122 
COMPS,ioos:station:USF.COMPS:NFB:1,2016-01-02T09:36:00Z,25.0840,-81.0960,25.08,1111122 
COMPS,ioos:station:USF.COMPS:NFB:1,2016-01-02T09:42:00Z,25.0840,-81.0960,25.0,1111122 
COMPS,ioos:station:USF.COMPS:NFB:1,2016-01-02T09:48:00Z,25.0840,-81.0960,24.93,1111122 
COMPS,ioos:station:USF.COMPS:NFB:1,2016-01-02T09:54:00Z,25.0840,-81.0960,24.92,1111122 
COMPS,ioos:station:USF.COMPS:NFB:1,2016-01-02T10:00:00Z,25.0840,-81.0960,24.97,1111122 
COMPS,ioos:station:USF.COMPS:NFB:1,2016-01-02T10:06:00Z,25.0840,-81.0960,24.75,1111122 
COMPS,ioos:station:USF.COMPS:NFB:1,2016-01-02T10:12:00Z,25.0840,-81.0960,24.77,1111122 
COMPS,ioos:station:USF.COMPS:NFB:1,2016-01-02T10:18:00Z,25.0840,-81.0960,24.71,1111122 
COMPS,ioos:station:USF.COMPS:NFB:1,2016-01-02T10:24:00Z,25.0840,-81.0960,24.71,1111122 
COMPS,ioos:station:USF.COMPS:NFB:1,2016-01-02T10:30:00Z,25.0840,-81.0960,24.68,1111122 
COMPS,ioos:station:USF.COMPS:NFB:1,2016-01-02T10:36:00Z,25.0840,-81.0960,24.53,1111122 
COMPS,ioos:station:USF.COMPS:NFB:1,2016-01-02T10:42:00Z,25.0840,-81.0960,24.52,1111122 
COMPS,ioos:station:USF.COMPS:NFB:1,2016-01-02T10:48:00Z,25.0840,-81.0960,24.51,1111122 
COMPS,ioos:station:USF.COMPS:NFB:1,2016-01-02T10:54:00Z,25.0840,-81.0960,24.6,1111122 
COMPS,ioos:station:USF.COMPS:NFB:1,2016-01-02T11:00:00Z,25.0840,-81.0960,24.57,1111122 
COMPS,ioos:station:USF.COMPS:NFB:1,2016-01-02T11:06:00Z,25.0840,-81.0960,24.65,1111122 
COMPS,ioos:station:USF.COMPS:NFB:1,2016-01-02T11:12:00Z,25.0840,-81.0960,24.68,1111122 
COMPS,ioos:station:USF.COMPS:NFB:1,2016-01-02T11:18:00Z,25.0840,-81.0960,24.64,1111122 
COMPS,ioos:station:USF.COMPS:NFB:1,2016-01-02T11:24:00Z,25.0840,-81.0960,24.75,1111122 
COMPS,ioos:station:USF.COMPS:NFB:1,2016-01-02T11:30:00Z,25.0840,-81.0960,24.71,1111122 
COMPS,ioos:station:USF.COMPS:NFB:1,2016-01-02T11:36:00Z,25.0840,-81.0960,24.75,1111122 
COMPS,ioos:station:USF.COMPS:NFB:1,2016-01-02T11:42:00Z,25.0840,-81.0960,24.69,1111122 
COMPS,ioos:station:USF.COMPS:NFB:1,2016-01-02T11:48:00Z,25.0840,-81.0960,24.71,1111122 
COMPS,ioos:station:USF.COMPS:NFB:1,2016-01-02T11:54:00Z,25.0840,-81.0960,24.62,1111122 
COMPS,ioos:station:USF.COMPS:NFB:1,2016-01-02T12:00:00Z,25.0840,-81.0960,24.61,1111122 
COMPS,ioos:station:USF.COMPS:NFB:1,2016-01-02T12:06:00Z,25.0840,-81.0960,24.53,1111122 
COMPS,ioos:station:USF.COMPS:NFB:1,2016-01-02T12:12:00Z,25.0840,-81.0960,24.56,1111122 
COMPS,ioos:station:USF.COMPS:NFB:1,2016-01-02T12:18:00Z,25.0840,-81.0960,24.57,1111122 
COMPS,ioos:station:USF.COMPS:NFB:1,2016-01-02T12:24:00Z,25.0840,-81.0960,24.51,1111122 
COMPS,ioos:station:USF.COMPS:NFB:1,2016-01-02T12:30:00Z,25.0840,-81.0960,24.52,1111122 
COMPS,ioos:station:USF.COMPS:NFB:1,2016-01-02T12:36:00Z,25.0840,-81.0960,24.58,1111122 
COMPS,ioos:station:USF.COMPS:NFB:1,2016-01-02T12:42:00Z,25.0840,-81.0960,24.51,1111122 
COMPS,ioos:station:USF.COMPS:NFB:1,2016-01-02T12:48:00Z,25.0840,-81.0960,24.38,1111122 
COMPS,ioos:station:USF.COMPS:NFB:1,2016-01-02T12:54:00Z,25.0840,-81.0960,24.32,1111122 
COMPS,ioos:station:USF.COMPS:NFB:1,2016-01-02T13:00:00Z,25.0840,-81.0960,24.36,1111122 
COMPS,ioos:station:USF.COMPS:NFB:1,2016-01-02T13:06:00Z,25.0840,-81.0960,24.5,1111122 
COMPS,ioos:station:USF.COMPS:NFB:1,2016-01-02T13:12:00Z,25.0840,-81.0960,24.53,1111122 
COMPS,ioos:station:USF.COMPS:NFB:1,2016-01-02T13:18:00Z,25.0840,-81.0960,24.51,1111122 
COMPS,ioos:station:USF.COMPS:NFB:1,2016-01-02T13:24:00Z,25.0840,-81.0960,24.58,1111122 
COMPS,ioos:station:USF.COMPS:NFB:1,2016-01-02T13:30:00Z,25.0840,-81.0960,24.6,1111122 
COMPS,ioos:station:USF.COMPS:NFB:1,2016-01-02T13:36:00Z,25.0840,-81.0960,24.62,1111122 
COMPS,ioos:station:USF.COMPS:NFB:1,2016-01-02T13:42:00Z,25.0840,-81.0960,24.76,1111122 
COMPS,ioos:station:USF.COMPS:NFB:1,2016-01-02T13:48:00Z,25.0840,-81.0960,24.89,1111122 
COMPS,ioos:station:USF.COMPS:NFB:1,2016-01-02T13:54:00Z,25.0840,-81.0960,24.98,1111122 
COMPS,ioos:station:USF.COMPS:NFB:1,2016-01-02T14:00:00Z,25.0840,-81.0960,25.11,1111122 
COMPS,ioos:station:USF.COMPS:NFB:1,2016-01-02T14:06:00Z,25.0840,-81.0960,25.1,1111122 
COMPS,ioos:station:USF.COMPS:NFB:1,2016-01-02T14:12:00Z,25.0840,-81.0960,25.28,1111122 
COMPS,ioos:station:USF.COMPS:NFB:1,2016-01-02T14:18:00Z,25.0840,-81.0960,25.4,1111122 
COMPS,ioos:station:USF.COMPS:NFB:1,2016-01-02T14:24:00Z,25.0840,-81.0960,25.42,1111122 
COMPS,ioos:station:USF.COMPS:NFB:1,2016-01-02T14:30:00Z,25.0840,-81.0960,25.31,1111122 
COMPS,ioos:station:USF.COMPS:NFB:1,2016-01-02T14:36:00Z,25.0840,-81.0960,25.3,1111122 
COMPS,ioos:station:USF.COMPS:NFB:1,2016-01-02T14:42:00Z,25.0840,-81.0960,25.36,1111122 
COMPS,ioos:station:USF.COMPS:NFB:1,2016-01-02T14:48:00Z,25.0840,-81.0960,25.47,1111122 
COMPS,ioos:station:USF.COMPS:NFB:1,2016-01-02T14:54:00Z,25.0840,-81.0960,25.51,1111122 
COMPS,ioos:station:USF.COMPS:NFB:1,2016-01-02T15:00:00Z,25.0840,-81.0960,25.55,1111122 
COMPS,ioos:station:USF.COMPS:NFB:1,2016-01-02T15:06:00Z,25.0840,-81.0960,25.71,1111122 
COMPS,ioos:station:USF.COMPS:NFB:1,2016-01-02T15:12:00Z,25.0840,-81.0960,25.71,1111122 
COMPS,ioos:station:USF.COMPS:NFB:1,2016-01-02T15:18:00Z,25.0840,-81.0960,25.77,1111122 
COMPS,ioos:station:USF.COMPS:NFB:1,2016-01-02T15:24:00Z,25.0840,-81.0960,25.82,1111122 
COMPS,ioos:station:USF.COMPS:NFB:1,2016-01-02T15:30:00Z,25.0840,-81.0960,25.84,1111122 
COMPS,ioos:station:USF.COMPS:NFB:1,2016-01-02T15:36:00Z,25.0840,-81.0960,26.03,1111122 
COMPS,ioos:station:USF.COMPS:NFB:1,2016-01-02T15:42:00Z,25.0840,-81.0960,26.15,1111122 
COMPS,ioos:station:USF.COMPS:NFB:1,2016-01-02T15:48:00Z,25.0840,-81.0960,26.05,1111122 
COMPS,ioos:station:USF.COMPS:NFB:1,2016-01-02T15:54:00Z,25.0840,-81.0960,25.96,1111122 
COMPS,ioos:station:USF.COMPS:NFB:1,2016-01-02T16:00:00Z,25.0840,-81.0960,25.97,1111122 
COMPS,ioos:station:USF.COMPS:NFB:1,2016-01-02T16:06:00Z,25.0840,-81.0960,25.94,1111122 
COMPS,ioos:station:USF.COMPS:NFB:1,2016-01-02T16:12:00Z,25.0840,-81.0960,26.05,1111122 
COMPS,ioos:station:USF.COMPS:NFB:1,2016-01-02T16:18:00Z,25.0840,-81.0960,26.08,1111122 
COMPS,ioos:station:USF.COMPS:NFB:1,2016-01-02T16:24:00Z,25.0840,-81.0960,26.03,1111122 
COMPS,ioos:station:USF.COMPS:NFB:1,2016-01-02T16:30:00Z,25.0840,-81.0960,26.11,1111122 
COMPS,ioos:station:USF.COMPS:NFB:1,2016-01-02T16:36:00Z,25.0840,-81.0960,26.28,1111122 
COMPS,ioos:station:USF.COMPS:NFB:1,2016-01-02T16:42:00Z,25.0840,-81.0960,26.46,1111122 
COMPS,ioos:station:USF.COMPS:NFB:1,2016-01-02T16:48:00Z,25.0840,-81.0960,26.67,1111122 
COMPS,ioos:station:USF.COMPS:NFB:1,2016-01-02T16:54:00Z,25.0840,-81.0960,26.66,1111122 
COMPS,ioos:station:USF.COMPS:NFB:1,2016-01-02T17:00:00Z,25.0840,-81.0960,26.69,1111122 
COMPS,ioos:station:USF.COMPS:NFB:1,2016-01-02T17:06:00Z,25.0840,-81.0960,26.81,1111122 